Location: Unspecified
(41.1637°N, 24.2901°E)
Time: 13:39:03
(UTC+01:00)

ARIANE 6 FM1 Upper Stage - Pass Details

Date: 24 January 2026
Orbit: 522 x 609 km, 62.0° (Epoch: 11 February)

Event Time Altitude Azimuth Distance (km) Brightness Sun altitude
Rises 16:53:44 0° 195° (SSW) 2,723 6.7 -5.0°
Reaches altitude 10° 16:56:05 10° 187° (S) 1,817 5.7 -5.5°
Maximum altitude 16:59:50 36° 120° (ESE) 867 3.3 -6.1°
Drops below altitude 10° 17:03:32 10° 53° (NE) 1,788 4.6 -6.8°
Enters shadow 17:04:07 - 50° (NE) 2,009 4.9 -6.9°
